Wind_Speed
14 12 15 9 5 9 13 11 13 17 18 18 24 29 21 11 6 11 19 15 12 6 6 8 8 5 10 14 16 17 15 17
14 12 9 10 11 9 9 12 16 16 18 19 20 25 23 16 8 6 16 13 12 13 13 10 11 12 12 12 14 15 16 17
16 14 13 13 13 12 12 13 15 15 15 19 20 14 22 24 5 10 15 15 17 15 11 14 16 15 13 13 12 10 9 10
19 17 17 20 18 19 18 15 17 19 15 19 15 15 15 20 18 7 13 15 17 17 16 16 17 18 18 16 15 14 14 14
26 21 20 16 18 19 20 23 23 19 26 21 18 16 21 20 19 15 10 14 16 17 19 19 20 19 19 17 17 19 19 19
18 18 19 20 19 20 23 27 27 23 24 26 20 14 18 19 14 14 15 18 20 19 21 22 20 19 19 18 18 20 20 21
17 21 21 22 24 26 24 25 25 25 19 15 19 12 9 11 14 15 21 24 23 22 22 24 22 21 21 21 20 21 22 24
19 21 24 26 29 31 29 31 26 19 10 16 15 14 12 14 19 23 26 27 27 26 25 25 24 24 24 23 24 25 27 29
26 27 30 31 30 31 32 30 24 17 20 21 18 16 17 21 23 24 26 26 25 25 25 23 23 24 25 25 26 28 31 31
34 35 36 33 32 35 34 26 22 20 22 25 22 22 22 24 28 26 25 25 23 23 21 21 23 24 24 26 30 29 25 25
37 38 39 27 31 29 19 15 21 23 21 21 23 28 26 25 26 26 25 25 25 23 21 23 23 23 26 29 28 26 25 28
36 36 35 33 27 22 24 15 23 24 25 25 29 30 30 26 25 25 27 26 25 23 23 24 25 26 29 29 26 28 30 31
36 36 26 24 21 23 26 24 27 28 27 26 26 27 26 23 23 25 26 26 25 23 24 26 28 30 30 28 28 30 32 35
23 22 23 20 22 25 26 25 25 25 24 22 19 20 21 20 21 23 25 25 23 23 25 28 30 32 29 28 31 33 35 36
28 27 27 23 25 27 27 24 21 23 24 25 24 22 21 20 21 21 21 22 24 25 27 29 29 30 30 31 33 34 35 36
23 25 28 28 28 25 25 24 23 23 25 26 26 23 21 22 20 20 21 22 25 26 27 27 28 30 31 33 35 35 36 35
29 32 32 30 28 28 28 27 26 27 26 26 24 22 20 20 20 21 24 25 25 26 26 28 30 32 33 34 36 36 35 35
31 31 27 25 25 26 28 30 30 27 26 21 18 19 20 21 23 24 24 25 26 27 29 31 34 35 35 36 36 35 35 34
32 31 27 25 24 26 27 30 30 29 24 21 20 21 22 24 23 24 25 27 29 32 34 35 36 36 36 37 37 35 35 35
Wind_Direction
186 206 215 216 230 260 267 271 277 288 300 334 341 339 330 328 306 207 203 193 203 228 256 271 288 290 298 311 310 313 311 306
202 211 232 243 240 263 287 299 304 317 331 340 350 349 357 2 269 263 200 221 226 241 247 264 285 300 299 293 295 301 301 298
210 220 219 223 245 257 266 283 305 314 333 344 338 323 354 1 289 255 220 243 252 266 280 289 294 295 287 286 287 294 297 295
217 229 235 226 241 250 264 282 300 320 339 333 335 321 319 331 346 316 243 249 267 292 293 296 297 298 298 297 303 306 305 305
220 227 235 244 262 273 283 292 298 302 314 318 316 301 289 302 305 304 282 274 285 295 302 304 300 294 292 293 299 298 298 301
242 254 256 265 280 292 291 292 303 311 311 310 309 281 263 279 279 270 266 273 284 291 296 297 296 288 285 284 287 291 295 296
250 252 255 272 287 297 304 309 308 311 303 311 317 260 250 268 266 268 261 265 274 281 290 293 291 287 285 288 289 291 293 293
253 260 265 276 281 290 298 307 300 298 255 327 307 266 247 258 271 271 266 270 275 281 286 289 291 288 286 287 289 292 294 295
253 252 256 264 275 287 297 302 292 277 264 294 289 263 263 273 285 269 260 260 265 270 277 283 280 278 279 283 287 290 295 295
259 259 257 275 282 288 294 284 279 271 274 286 271 266 266 276 283 278 270 264 266 272 271 269 266 270 277 285 292 293 293 294
254 263 273 275 280 289 282 282 286 276 272 268 262 265 266 272 279 283 281 277 276 277 275 270 270 278 287 293 293 290 292 297
260 263 274 276 274 281 278 270 282 280 283 276 263 261 263 268 272 275 277 278 279 279 277 278 283 290 297 296 293 293 292 292
255 260 265 270 270 278 285 278 272 281 285 273 264 262 261 263 265 268 271 272 272 274 279 285 291 296 295 293 293 293 292 293
238 251 273 269 273 274 276 283 280 278 273 269 262 256 261 265 271 266 267 270 275 279 284 289 294 294 293 296 295 297 297 296
254 264 260 266 267 267 269 271 266 265 268 270 271 268 273 277 267 264 266 271 278 286 292 294 295 298 301 301 301 301 300 300
243 241 261 280 280 272 278 274 265 264 265 266 269 276 278 270 270 271 275 283 289 292 294 297 299 300 300 301 300 298 297 297
253 256 264 272 270 268 267 269 269 270 275 277 277 276 267 270 276 284 289 289 291 293 295 295 294 296 299 301 301 300 298 298
260 262 269 270 263 260 261 267 271 275 276 280 275 268 274 280 284 285 287 290 291 290 290 291 294 297 299 302 302 301 300 300
262 267 267 263 261 261 262 264 269 269 272 274 272 274 278 281 281 284 286 289 289 291 292 295 297 299 300 303 303 301 301 301
Height
5906 5907 5909 5910 5910 5911 5911 5911 5912 5912 5911 5909 5905 5901 5897 5896 5897 5899 5899 5900 5899 5897 5898 5902 5902 5900 5899 5899 5898 5899 5900 5899
5904 5905 5906 5907 5909 5910 5909 5910 5909 5908 5907 5907 5905 5900 5895 5893 5892 5893 5894 5897 5897 5896 5898 5898 5899 5897 5896 5896 5896 5896 5896 5895
5901 5902 5904 5905 5906 5907 5907 5907 5906 5905 5906 5905 5903 5899 5895 5891 5889 5890 5892 5894 5894 5895 5894 5895 5894 5893 5893 5893 5892 5892 5893 5892
5898 5900 5901 5902 5903 5903 5903 5904 5903 5903 5903 5902 5901 5898 5894 5893 5892 5891 5892 5892 5893 5894 5893 5891 5890 5889 5888 5888 5887 5886 5886 5886
5894 5897 5898 5899 5900 5900 5901 5901 5901 5900 5899 5896 5897 5895 5893 5892 5891 5890 5890 5890 5889 5890 5889 5888 5887 5886 5886 5885 5884 5883 5882 5881
5891 5895 5896 5896 5897 5898 5898 5898 5896 5896 5893 5891 5890 5889 5889 5889 5887 5887 5887 5887 5887 5887 5887 5886 5885 5885 5884 5883 5882 5881 5879 5877
5888 5889 5890 5892 5892 5892 5892 5892 5891 5891 5888 5886 5885 5885 5886 5886 5886 5886 5885 5884 5884 5884 5884 5882 5880 5880 5880 5878 5877 5876 5874 5873
5883 5884 5886 5887 5888 5887 5888 5887 5886 5885 5884 5882 5881 5880 5882 5882 5882 5881 5880 5879 5878 5879 5877 5876 5875 5874 5873 5872 5871 5869 5867 5866
5879 5880 5880 5882 5884 5883 5882 5881 5880 5880 5880 5878 5879 5877 5877 5878 5878 5877 5875 5874 5872 5872 5871 5870 5868 5868 5868 5866 5864 5862 5859 5857
5874 5874 5875 5879 5877 5877 5875 5874 5873 5874 5874 5873 5872 5872 5872 5871 5871 5871 5870 5868 5867 5868 5868 5867 5865 5865 5864 5861 5859 5855 5852 5851
5867 5869 5871 5872 5872 5870 5867 5870 5869 5868 5867 5867 5865 5864 5867 5865 5864 5863 5863 5863 5862 5862 5861 5861 5859 5857 5855 5852 5849 5847 5845 5842
5862 5862 5863 5865 5864 5863 5861 5865 5862 5862 5860 5859 5858 5858 5858 5858 5857 5856 5855 5855 5854 5854 5855 5854 5852 5849 5846 5843 5840 5838 5837 5835
5854 5855 5856 5857 5857 5856 5855 5859 5855 5854 5853 5852 5851 5850 5850 5850 5850 5850 5849 5848 5848 5847 5847 5846 5845 5842 5839 5835 5832 5831 5829 5826
5846 5847 5849 5850 5850 5850 5849 5848 5848 5846 5846 5845 5844 5844 5844 5845 5845 5844 5843 5843 5842 5840 5839 5837 5836 5834 5830 5826 5824 5821 5819 5816
5842 5842 5841 5842 5843 5842 5841 5841 5840 5839 5839 5838 5838 5838 5838 5839 5838 5837 5836 5836 5834 5833 5831 5829 5828 5824 5819 5817 5814 5811 5808 5805
5835 5836 5836 5836 5836 5835 5833 5833 5834 5834 5834 5833 5833 5833 5833 5833 5831 5830 5830 5828 5827 5825 5823 5821 5818 5815 5812 5809 5806 5803 5800 5796
5827 5829 5829 5829 5828 5828 5827 5826 5826 5825 5826 5826 5826 5826 5826 5825 5824 5823 5822 5820 5819 5818 5816 5813 5811 5808 5805 5802 5798 5794 5790 5786
5818 5820 5821 5822 5821 5821 5821 5820 5818 5819 5819 5820 5819 5819 5818 5818 5817 5816 5815 5813 5811 5810 5808 5806 5803 5799 5796 5792 5788 5783 5779 5775
5810 5812 5813 5814 5814 5814 5813 5813 5813 5812 5813 5814 5813 5813 5812 5812 5811 5810 5809 5807 5805 5802 5800 5796 5793 5789 5785 5781 5777 5773 5769 5765